Weather History for Klamath Falls, OR

Change the Weather History Date:

Wednesday, February 6, 2013

  Actual Average Record
Temperature  
Mean Temperature 34 °F 33 °F  
Max Temperature 45 °F 43 °F 58 °F (1963)
Min Temperature 23 °F 23 °F -11 °F (1989)
Degree Days  
Heating Degree Days 31 32  
Month to date heating degree days 178 197  
Since 1 July heating degree days 3975 4177  
Cooling Degree Days 0 0  
Month to date cooling degree days 0 0  
Year to date cooling degree days 0 0  
Moisture  
Dew Point 25 °F    
Average Humidity 72    
Maximum Humidity 96    
Minimum Humidity 49    
Precipitation  
Precipitation 0.00 in 0.07 in 0.48 in (1949)
Month to date precipitation T 0.37  
Year to date precipitation 0.44 2.22  
Sea Level Pressure  
Sea Level Pressure 30.07 in    
Wind  
Wind Speed 5 mph (South)    
Max Wind Speed 14 mph    
Max Gust Speed 18 mph    
Visibility 10 miles    
Events      
T = Trace of Precipitation, MM = Missing Value Source: NWS Daily Summary

Daily Weather History Graph

Daily Weather History Graph

Search for Another Location

Airport:

Trip Planner

Search our weather history database for the weather conditions in past years. The results will help you decide how hot, cold, wet, or windy it might be!

Date:

Astronomy

Feb. 06, 2013 Rise Set
Actual Time 7:14 AM PST 5:28 PM PST
Civil Twilight 6:44 AM PST 5:57 PM PST
Nautical Twilight 6:11 AM PST 6:30 PM PST
Astronomical Twilight 5:39 AM PST 7:03 PM PST
Moon 4:05 AM PST (2/6) 1:50 PM PST (2/6)
Length of Visible Light 11h 12m
Length of Day
10h 14m
Waning Crescent, 16% of the Moon is Illuminated
Feb 6
Waning Crescent
Feb 9
New
Feb 17
First Quarter
Feb 25
Full
Mar 4
Last Quarter

Hourly Weather History & Observations

Time (PST) Temp. Windchill Dew Point Humidity Pressure Visibility Wind Dir Wind Speed Gust Speed Precip Events Conditions
12:53 AM 28.9 °F 25.2 °F 25.0 °F 85% 30.11 in 10.0 mi SSW 3.5 mph - N/A   Clear
1:53 AM 28.0 °F - 24.1 °F 85% 30.12 in 10.0 mi Calm Calm - N/A   Partly Cloudy
2:53 AM 26.1 °F - 24.1 °F 92% 30.13 in 10.0 mi Calm Calm - N/A   Mostly Cloudy
3:53 AM 26.1 °F - 24.1 °F 92% 30.15 in 10.0 mi Calm Calm - N/A   Mostly Cloudy
4:53 AM 26.1 °F - 24.1 °F 92% 30.14 in 10.0 mi Calm Calm - N/A   Partly Cloudy
5:53 AM 24.1 °F 19.7 °F 21.9 °F 91% 30.16 in 10.0 mi South 3.5 mph - N/A   Clear
6:01 AM 24.8 °F 20.5 °F 21.2 °F 86% 30.10 in 7.0 mi South 3.5 mph - N/A   Clear
6:53 AM 23.0 °F - 21.0 °F 92% 30.17 in 10.0 mi Calm Calm - N/A   Scattered Clouds
7:53 AM 25.0 °F - 23.0 °F 92% 30.19 in 10.0 mi Calm Calm - N/A   Scattered Clouds
8:53 AM 28.9 °F 25.2 °F 26.1 °F 89% 30.17 in 10.0 mi SSE 3.5 mph - N/A   Scattered Clouds
9:53 AM 33.1 °F 26.1 °F 28.0 °F 82% 30.17 in 10.0 mi SSE 8.1 mph - N/A   Scattered Clouds
10:53 AM 37.0 °F 29.3 °F 28.0 °F 70% 30.14 in 10.0 mi South 11.5 mph - N/A   Scattered Clouds
11:53 AM 39.9 °F 32.9 °F 26.1 °F 58% 30.10 in 10.0 mi SSE 11.5 mph - N/A   Scattered Clouds
12:53 PM 41.0 °F 35.8 °F 27.0 °F 57% 30.09 in 10.0 mi SSE 8.1 mph - N/A   Scattered Clouds
1:53 PM 44.1 °F 39.5 °F 28.0 °F 53% 30.04 in 10.0 mi SSE 8.1 mph - N/A   Scattered Clouds
2:53 PM 45.0 °F 40.1 °F 27.0 °F 49% 30.01 in 10.0 mi SSE 9.2 mph - N/A   Mostly Cloudy
3:53 PM 45.0 °F 41.2 °F 28.0 °F 52% 29.99 in 10.0 mi SSE 6.9 mph - N/A   Mostly Cloudy
4:53 PM 41.0 °F 35.8 °F 27.0 °F 57% 29.98 in 10.0 mi SSE 8.1 mph - N/A   Mostly Cloudy
5:53 PM 39.0 °F 31.4 °F 28.0 °F 65% 29.97 in 10.0 mi SSE 12.7 mph - N/A   Mostly Cloudy
6:53 PM 37.9 °F 30.9 °F 21.9 °F 53% 29.98 in 10.0 mi South 10.4 mph - N/A   Mostly Cloudy
7:53 PM 35.1 °F 32.2 °F 21.9 °F 59% 29.99 in 10.0 mi SW 3.5 mph - N/A   Mostly Cloudy
8:53 PM 34.0 °F 29.8 °F 21.9 °F 61% 29.99 in 10.0 mi SSE 4.6 mph - N/A   Scattered Clouds
9:53 PM 34.0 °F 31.0 °F 19.9 °F 56% 29.97 in 10.0 mi SSE 3.5 mph - N/A   Scattered Clouds
10:53 PM 33.1 °F 28.7 °F 21.9 °F 64% 29.98 in 10.0 mi SW 4.6 mph - N/A   Partly Cloudy
11:53 PM 34.0 °F 28.0 °F 26.1 °F 73% 29.96 in 10.0 mi South 6.9 mph - N/A   Mostly Cloudy